Location: Village de las Huertas
(35.3014°N, 106.4095°W)
Time: 08:50:02
(UTC+00:00)

Meteor 2-8 Rocket - Pass Details

Date: 29 October 2020
Orbit: 937 x 958 km, 82.5° (Epoch: 04 December)

Event Time Altitude Azimuth Distance (km) Brightness Sun altitude
Rises 12:27:49 0° 351° (N) 3,644 7.3 -12.2°
Reaches altitude 10° 12:30:19 10° 349° (N) 2,694 6.6 -11.7°
Maximum altitude 12:36:28 74° 266° (W) 992 4.4 -10.5°
Drops below altitude 10° 12:42:33 10° 182° (S) 2,670 6.9 -9.2°
Sets 12:45:02 0° 180° (S) 3,609 7.6 -8.7°
